This demonstration page uses our WeatherBlox Daily Observations layout. Learn more.

Hourly Observations for December 16, 2017

Temp ( °F °C ) Dew Point ( °F °C ) Humidity (%) Winds ( mph kmh ) Pressure ( in mb ) Visibility ( mi km ) Precip ( " mm )
12:15 am 00:15 Clear 40 4.5 15 -9.2 37 37 WSW 9 15 29.8 1009 10 16.09344 0 0
12:35 am 00:35 Clear 40 4.3 16 -9.1 37 37 WSW 10 17 29.8 1009 10 16.09344 0 0
12:55 am 00:55 Clear 40 4.4 15 -9.2 37 37 W 13 20 29.8 1009 10 16.09344 0 0
1:15 am 01:15 Clear 38 3.3 15 -9.6 39 39 WSW 7 11 29.83 1010 10 16.09344 0 0
1:35 am 01:35 Clear 36 2.4 14 -10 40 40 W 6 9 29.83 1010 10 16.09344 0 0
1:55 am 01:55 Clear 35 1.6 14 -10 42 42 SW 5 7 29.83 1010 10 16.09344 0 0
2:15 am 02:15 Clear 36 2.3 14 -10 40 40 WSW 5 7 29.83 1010 10 16.09344 0 0
2:35 am 02:35 Clear 35 1.6 14 -10.1 42 42 W 5 7 29.83 1010 10 16.09344 0 0
2:55 am 02:55 Clear 32 -0.2 13 -10.7 45 45 Calm 29.85 1011 10 16.09344 0 0
3:15 am 03:15 Clear 32 0.1 14 -10.1 47 47 W 6 9 29.85 1011 10 16.09344 0 0
3:35 am 03:35 Clear 34 1.1 14 -10.2 43 43 W 6 9 29.83 1010 10 16.09344 0 0
3:55 am 03:55 Clear 31 -0.5 14 -10.1 49 49 W 5 7 29.85 1011 10 16.09344 0 0
4:15 am 04:15 Clear 32 0.1 14 -10.1 47 47 W 5 7 29.85 1011 10 16.09344 0 0
4:35 am 04:35 Clear 31 -0.7 14 -10.2 49 49 W 5 7 29.85 1011 10 16.09344 0 0
4:55 am 04:55 Clear 29 -1.4 14 -9.8 53 53 WNW 5 7 29.85 1011 10 16.09344 0 0
5:15 am 05:15 Clear 30 -1.2 14 -9.8 52 52 Calm 29.85 1011 10 16.09344 0 0
5:35 am 05:35 Clear 28 -2.2 14 -10 56 56 W 6 9 29.85 1011 10 16.09344 0 0
5:55 am 05:55 Clear 30 -0.9 14 -9.8 51 51 W 5 7 29.85 1011 10 16.09344 0 0
6:15 am 06:15 Clear 29 -1.7 14 -9.9 54 54 Calm 29.85 1011 10 16.09344 0 0
6:35 am 06:35 Clear 28 -2.3 14 -9.8 57 57 WNW 7 11 29.85 1011 10 16.09344 0 0
6:55 am 06:55 Clear 28 -2.3 15 -9.6 58 58 NW 7 11 29.85 1011 10 16.09344 0 0
7:15 am 07:15 Clear 31 -0.8 16 -8.7 55 55 NW 8 13 29.85 1011 10 16.09344 0 0
7:35 am 07:35 Clear 30 -1.3 17 -8.1 60 60 NNW 7 11 29.88 1012 10 16.09344 0 0
7:55 am 07:55 Sunny 31 -0.7 19 -7.5 60 60 NNW 9 15 29.88 1012 10 16.09344 0 0
8:15 am 08:15 Sunny 31 -0.3 19 -7.3 60 60 NNW 6 9 29.88 1012 10 16.09344 0 0
8:35 am 08:35 Sunny 32 0.2 20 -6.8 60 60 NNW 5 7 29.88 1012 10 16.09344 0 0
8:55 am 08:55 Sunny 36 2.2 21 -6 55 55 N 8 13 29.85 1011 10 16.09344 0 0
9:15 am 09:15 Sunny 38 3.5 22 -5.5 52 52 N 10 17 29.85 1011 10 16.09344 0 0
9:35 am 09:35 Sunny 42 5.5 24 -4.7 48 48 N 10 17 29.83 1010 10 16.09344 0 0
9:55 am 09:55 Sunny 45 7.1 24 -4.3 44 44 NNE 14 22 29.83 1010 10 16.09344 0 0
10:15 am 10:15 Sunny 47 8.2 24 -4.5 41 41 NNE 14 22 29.8 1009 10 16.09344 0 0
10:35 am 10:35 Sunny 49 9.2 24 -4.2 39 39 NE 17 28 29.8 1009 10 16.09344 0 0
10:55 am 10:55 Sunny 51 10.3 24 -4.5 35 35 NE 17 28 29.8 1009 10 16.09344 0 0
11:15 am 11:15 Sunny 51 10.5 24 -4.3 35 35 NE 21 33 29.77 1008 10 16.09344 0 0
11:35 am 11:35 Sunny 52 10.9 25 -4.1 35 35 NE 18 30 29.77 1008 10 16.09344 0 0
11:55 am 11:55 Sunny 52 11.3 25 -3.8 35 35 ENE 14 22 29.77 1008 10 16.09344 0 0
12:15 pm 12:15 Sunny 54 12.2 25 -4 32 32 ENE 18 30 29.77 1008 10 16.09344 0 0
12:35 pm 12:35 Sunny 54 12.2 25 -4 32 32 NE 20 31 29.77 1008 10 16.09344 0 0
12:55 pm 12:55 Sunny 54 12.1 26 -3.5 34 34 NE 15 24 29.77 1008 10 16.09344 0 0
1:15 pm 13:15 Sunny 54 12 26 -3.4 34 34 NE 17 28 29.77 1008 10 16.09344 0 0
1:35 pm 13:35 Sunny 54 12.3 26 -3.3 34 34 ENE 17 28 29.77 1008 10 16.09344 0 0
1:55 pm 13:55 Sunny 54 12.1 27 -2.7 36 36 NE 20 31 29.77 1008 10 16.09344 0 0
2:15 pm 14:15 Sunny 53 11.7 27 -2.7 37 37 ENE 18 30 29.77 1008 10 16.09344 0 0
2:35 pm 14:35 Sunny 53 11.4 28 -2.5 38 38 ENE 20 31 29.77 1008 10 16.09344 0 0
2:55 pm 14:55 Sunny 52 10.9 28 -2.5 39 39 NE 16 26 29.77 1008 10 16.09344 0 0
3:15 pm 15:15 Sunny 51 10.8 27 -2.6 39 39 NE 20 31 29.77 1008 10 16.09344 0 0
3:35 pm 15:35 Sunny 51 10.8 28 -2.1 41 41 NE 22 35 29.77 1008 10 16.09344 0 0
3:55 pm 15:55 Sunny 51 10.5 28 -2 42 42 NE 21 33 29.83 1010 10 16.09344 0 0
4:15 pm 16:15 Sunny 50 9.9 29 -1.4 46 46 NE 22 35 29.83 1010 10 16.09344 0 0
4:35 pm 16:35 Sunny 48 9.1 31 -0.4 52 52 NE 21 33 29.83 1010 10 16.09344 0 0
4:55 pm 16:55 Sunny 47 8.1 32 -0.1 57 57 NE 14 22 29.83 1010 10 16.09344 0 0
5:15 pm 17:15 Clear 44 6.4 31 -0.6 61 61 NE 13 20 29.88 1012 10 16.09344 0 0
5:35 pm 17:35 Clear 40 4.5 30 -1.2 67 67 NE 10 17 29.88 1012 10 16.09344 0 0
5:55 pm 17:55 Clear 40 4.5 30 -1 68 68 NE 12 19 29.94 1014 10 16.09344 0 0
6:15 pm 18:15 Clear 38 3.1 29 -1.5 72 72 NE 13 20 29.94 1014 10 16.09344 0 0
6:35 pm 18:35 Clear 37 2.7 29 -1.4 75 75 NE 13 20 29.94 1014 10 16.09344 0 0
6:55 pm 18:55 Clear 37 3 30 -1 75 75 NE 12 19 29.94 1014 10 16.09344 0 0
7:15 pm 19:15 Clear 36 2.4 30 -1.1 78 78 NNE 13 20 29.94 1014 10 16.09344 0 0
7:35 pm 19:35 Clear 35 1.8 29 -1.4 80 80 NNE 13 20 30 1016 10 16.09344 0 0
7:55 pm 19:55 Clear 36 2.2 30 -1 80 80 NE 14 22 29.97 1015 10 16.09344 0 0
8:15 pm 20:15 Clear 36 2.2 30 -1 80 80 NE 16 26 29.97 1015 10 16.09344 0 0
8:35 pm 20:35 Clear 36 2.1 30 -1 80 80 NE 15 24 29.97 1015 10 16.09344 0 0
8:55 pm 20:55 Clear 34 1.3 29 -1.4 82 82 NNE 13 20 30 1016 10 16.09344 0 0
9:15 pm 21:15 Clear 33 0.8 30 -1.3 86 86 NNE 14 22 30 1016 10 16.09344 0 0
9:35 pm 21:35 Clear 33 0.5 30 -1.2 89 89 NNE 12 19 30.03 1017 10 16.09344 0 0
9:55 pm 21:55 Clear 33 0.3 30 -1.1 90 90 NNE 12 19 30.03 1017 10 16.09344 0 0
10:15 pm 22:15 Clear 32 0 30 -1.1 92 92 NNE 13 20 30.03 1017 10 16.09344 0 0
10:35 pm 22:35 Clear 32 -0.1 30 -1.2 92 92 NNE 13 20 30.03 1017 10 16.09344 0 0
10:55 pm 22:55 Clear 32 0 31 -0.7 95 95 NNE 14 22 30.03 1017 10 16.09344 0 0
11:15 pm 23:15 Clear 32 0 31 -0.5 96 96 NNE 14 22 30.03 1017 10 16.09344 0 0
11:35 pm 23:35 Clear 32 0 31 -0.5 96 96 NNE 14 22 30.03 1017 10 16.09344 0 0
11:55 pm 23:55 Clear 32 -0.1 31 -0.5 97 97 NNE 14 22 30 1016 10 16.09344 0 0

Powered by AerisWeather